Regional Weather Roundup
Issued by NWS

Home | Current Version | Previous Version | Text Only | Print | Product List | Glossary Off
Versions: 1 2 3 4 5 6 7 8 9 10 11 12 13 14 15 16 17 18 19 20 21 22 23 24 25 26 27 28 29 30 31 32 33 34 35 36 37 38 39 40 41 42 43 44 45 46 47 48 49 50

000
ASUS45 KTFX 202310
RWRMT
MONTANA REGIONAL WEATHER ROUNDUP
NATIONAL WEATHER SERVICE GREAT FALLS MT
400 PM MST MON NOV 20 2017

NOTE: "FAIR" INDICATES FEW OR NO CLOUDS BELOW 12000 FEET WITH NO
SIGNIFICANT WEATHER AND/OR OBSTRUCTIONS TO VISIBILITY.

MTZ001>007-043-210000-
WEST OF THE DIVIDE

CITY           SKY/WX    TMP DP  RH WIND       PRES   REMARKS
KALISPELL      LGT RAIN  40  39  97 SE10      29.75R
MISSOULA       LGT RAIN  39  39 100 NW9       29.80R FOG
BUTTE          MOCLDY    42  32  67 SW5       29.78F
MULLAN PASS    LGT SNOW  31  29  92 VRB7G21   29.71R VSB 3/4 WCI  24
ANACONDA         N/A     43  32  65 S13       29.74S
DEER LODGE       N/A     41  34  75 S8        29.76R
EUREKA           N/A     41  36  81 MISG      29.72R
HAMILTON         N/A     43  39  87 S12       29.76R
LIBBY            N/A     37  37 100 CALM      29.72R
PLAINS           N/A     41  37  85 CALM      29.79S
RONAN            N/A     41  39  92 SE5       29.83R
$$

MTZ008-052>055-210000-
SOUTHWEST MONTANA

CITY           SKY/WX    TMP DP  RH WIND       PRES   REMARKS
BOZEMAN        CLOUDY    44  31  60 VRB3      29.78S
DILLON         CLOUDY    38  32  79 SW6       29.83F
W YELLOWSTONE  SNOW      28  27  93 S3        29.95S VSB 1/2
ENNIS          CLOUDY    37  34  87 S15       29.90F WCI  28
TWIN BRIDGES     N/A     43  32  65 CALM      29.84F
$$

MTZ009-010-012-014-046-048-049-054-210000-
EAST SLOPES AND CENTRAL MONTANA

CITY           SKY/WX    TMP DP  RH WIND       PRES   REMARKS
CUT BANK       CLOUDY    29  19  66 NE12      29.78R WCI  19
GREAT FALLS    LGT SNOW  31  22  69 E12       29.78R WCI  22
MALMSTROM AFB  LGT RAIN  33  22  64 NE10      29.78R WCI  25
HELENA         CLOUDY    46  36  68 CALM      29.72S
CHOTEAU          N/A     30  25  80 NE9       29.79R WCI  22
FAIRFIELD      FLURRIES  32  24  72 NE8       29.76R WCI  25
POWER          FLURRIES  30  21  68 NE9       29.77R WCI  22
RAYNESFORD     FLURRIES  34  27  75 W8        29.76R WCI  27
$$

MTZ011-013-016-021-045-047-050-051-210000-
NORTH CENTRAL MONTANA

CITY           SKY/WX    TMP DP  RH WIND       PRES   REMARKS
HAVRE          MOCLDY    31  22  69 N8        29.83R WCI  23
LEWISTOWN      CLOUDY    38  29  70 NW5       29.73R
N BAR RANCH    CLOUDY    37  27  65 E7        29.76R
CHINOOK          N/A     32  21  64 NW3       29.84R
DENTON         MOCLDY    34  25  69 NW22      29.73R WCI  22
GEYSER         MOCLDY    33  25  75 E9        29.75R WCI  25
GRASS RANGE    MOCLDY    36  28  73 E13       29.73R WCI  27
$$

MTZ017>020-022>027-061-062-210000-
NORTHEAST MONTANA

CITY           SKY/WX    TMP DP  RH WIND       PRES   REMARKS
GLASGOW        CLOUDY    32  15  49 NW13      29.78R WCI  22
GLENDIVE       CLOUDY    36  18  48 N17       29.74R WCI  26
JORDAN           N/A     36  23  59 N8        29.76R WCI  30
SIDNEY         CLOUDY    37  17  44 NW15G23   29.72R WCI  28
WOLF POINT     CLOUDY    37  18  46 NW13      29.76R WCI  29
MALTA          CLOUDY    32  25  74 W12       29.80R WCI  23
PLENTYWOOD       N/A     27  14  59 NW22G28   29.69R WCI  12
POPLAR           N/A     36  16  44 NW15G21   29.75R WCI  26
SCOBEY           N/A     26   9  48 W17       29.74R WCI  13
$$

MTZ028>42-056>058-210000-
SOUTHCENTRAL AND SOUTHEAST MONTANA

CITY           SKY/WX    TMP DP  RH WIND       PRES   REMARKS
BAKER          FAIR      41  27  57 NW15      29.69R
BILLINGS       CLOUDY    51  33  50 NW8       29.71R
LIVINGSTON     LGT RAIN  40  32  73 SW40G51   29.74F
MILES CITY     CLOUDY    41  29  62 N16       29.73R
BIG TIMBER     CLOUDY    41  32  70 W32G39    29.76S
EKALAKA          N/A     43  22  43 NW7       29.70R
FORSYTH          N/A     45  28  53 NE9       29.73R
HARLOWTON      MOCLDY    39  33  80 W23       29.71R WCI  28
LAUREL           N/A     54  30  40 W13G20    29.71R
$$

REGIONAL REPORTS...DAKOTAS

CITY           SKY/WX    TMP DP  RH WIND       PRES   REMARKS
WILLISTON      MOCLDY    32  16  51 NW18      29.71R WCI  20
MINOT          FAIR      30  19  63 W30G41    29.58R WCI  15
DICKINSON      FAIR      38  25  59 NW17      29.64R WCI  28
BEACH          CLOUDY    36  19  51 N20G30    29.72R WCI  25
CROSBY         CLOUDY    25  19  80 NW22      29.67R WCI  10
TIOGA          MOCLDY    28  16  59 NW29G37   29.64R WCI  13
WATFORD CITY   MOCLDY    36  19  51 NW17      29.68R WCI  25
BISMARCK       FAIR      46  30  53 NW22G35   29.61R
GRAND FORKS    FAIR      40  32  73 W23G33    29.34R
FARGO          FAIR      50  26  39 W26G38    29.40R
BUFFALO SD       N/A     47  23  38 NW13      29.61R
RAPID CITY     FAIR      55  22  27 N15       29.67R
$$

REGIONAL REPORTS...WYOMING/IDAHO/WASHINGTON

CITY           SKY/WX    TMP DP  RH WIND       PRES   REMARKS
GILLETTE       FAIR      52  22  30 CALM      29.72R
SHERIDAN       CLOUDY    55  29  36 W10G16    29.69R
BUFFALO WY     MOCLDY    49  24  37 SE7       29.73R
CODY           FAIR      46  26  45 W13G29    29.81R
YELLOWSTONE LA   N/A     27  25  92 VRB3      29.97S
IDAHO FALLS    CLOUDY    39  33  79 SW14      30.03S WCI  31
SALMON         CLOUDY    38  34  85 W3        29.88R
BOISE          CLOUDY    47  40  76 SE18G25   29.95R
SPOKANE        CLOUDY    47  45  93 W18       29.68R
$$

REGIONAL REPORTS...ALBERTA

CITY           SKY/WX    TMP DP  RH WIND       PRES   REMARKS
EDMONTON       CLEAR      1  -9  60 N8        30.01R WCI -12
CALGARY        FLURRIES  19  14  79 N9        29.86R WCI   9
LETHBRIDGE     CLOUDY    23  16  74 NE16G23   29.86R WCI  10
MEDICINE HAT   CLOUDY    18   9  68 N12       29.93R WCI   5
$$

REGIONAL REPORTS...SASKATCHEWAN

CITY           SKY/WX    TMP DP  RH WIND       PRES   REMARKS
SWIFT CURRENT  CLOUDY    10   0  61 NW22G31   29.80R WCI  -9
REGINA         CLOUDY    10   3  72 NW35G45   29.73R BLWGSNOWWCI -13
SASKATOON      PTCLDY     5  -2  72 NW23G29   29.83R WCI -17
$$



USA.gov is the U.S. government's official web portal to all federal, state and local government web resources and services.